This demonstration page uses our WeatherBlox Daily Observations layout. Learn more.

Left ArrowRight Arrow

Hourly Observations for July 17, 2015

Temp ( °F °C ) Dew Point ( °F °C ) Humidity (%) Winds ( mph kmh ) Pressure ( in mb ) Visibility ( mi km ) Precip ( " mm )
12:52 am 00:52 Clear 77 25 71 21.7 82 82 S 9 15 29.87 1011 10 16 0.00 0.00
1:52 am 01:52 Clear 76 24.4 71 21.7 85 85 S 8 13 29.86 1011 10 16 0.00 0.00
2:52 am 02:52 Partly Cloudy 75 23.9 71 21.7 88 88 S 9 15 29.86 1011 10 16 0.00 0.00
3:52 am 03:52 Partly Cloudy 74 23.3 70 21.1 88 88 S 7 11 29.86 1011 10 16 0.00 0.00
4:52 am 04:52 Clear 73 22.8 69 20.6 87 87 S 6 9 29.87 1011 10 16 0.00 0.00
5:52 am 05:52 Clear 73 22.8 69 20.6 87 87 S 7 11 29.87 1012 10 16 0.00 0.00
6:52 am 06:52 Sunny 78 25.6 69 20.6 74 74 SW 9 15 29.88 1012 10 16 0.00 0.00
7:52 am 07:52 Sunny 80 26.7 70 21.1 71 71 SW 13 20 29.89 1012 10 16 0.00 0.00
8:52 am 08:52 Sunny 82 27.8 70 21.1 67 67 SW 10 17 29.90 1012 10 16 0.00 0.00
9:52 am 09:52 Sunny 84 28.9 71 21.7 65 65 WSW 14 22 29.90 1012 10 16 0.00 0.00
10:52 am 10:52 Mostly Sunny 87 30.6 71 21.7 59 59 WSW 12 19 29.89 1012 10 16 0.00 0.00
11:52 am 11:52 Mostly Sunny 88 31.1 71 21.7 57 57 WSW 15 24 29.89 1012 10 16 0.00 0.00
12:52 pm 12:52 Partly Cloudy 89 31.7 73 22.8 59 59 SSW 15 24 29.89 1012 10 16 0.00 0.00
1:52 pm 13:52 Sunny 91 32.8 71 21.7 52 52 SW 17 28 29.88 1012 10 16 0.00 0.00
2:52 pm 14:52 Mostly Cloudy 90 32.2 72 22.2 56 56 SSW 13 20 29.89 1012 10 16 0.00 0.00
3:52 pm 15:52 Sunny 89 31.7 73 22.8 59 59 SW 7 11 29.88 1012 10 16 0.00 0.00
4:52 pm 16:52 Sunny 88 31.1 74 23.3 63 63 SSW 9 15 29.86 1011 10 16 0.00 0.00
5:52 pm 17:52 Sunny 88 31.1 75 23.9 66 66 S 12 19 29.84 1011 10 16 0.00 0.00
6:52 pm 18:52 Sunny 89 31.7 75 23.9 63 63 S 9 15 29.83 1010 10 16 0.00 0.00
7:52 pm 19:52 Sunny 86 30 74 23.3 67 67 S 7 11 29.84 1010 10 16 0.00 0.00
8:52 pm 20:52 Clear 83 28.3 74 23.3 74 74 S 8 13 29.83 1010 10 16 0.00 0.00
9:52 pm 21:52 Clear 82 27.8 73 22.8 74 74 S 10 17 29.85 1011 10 16 0.00 0.00
10:52 pm 22:52 Clear 80 26.7 72 22.2 76 76 S 9 15 29.87 1011 10 16 0.00 0.00
11:52 pm 23:52 Clear 79 26.1 72 22.2 79 79 S 10 17 29.88 1012 10 16 0.00 0.00

Powered by AerisWeather